Terminal Aerodrome Forecast
Issued by NWS North Platte, NE

Home | Current Version | Previous Version | Graphics & Text | Print | Product List | Glossary On
Versions: 1 2 3 4 5 6 7 8 9 10 11 12 13 14 15 16
000
FTUS43 KLBF 211120
TAFVTN
TAF
KVTN 211120Z 2112/2212 13004KT P6SM VCSH SCT015 OVC045
     FM211700 12012KT P6SM OVC035
     FM220000 14009KT P6SM BKN050=

USA.gov is the U.S. government's official web portal to all federal, state and local government web resources and services.